GTI7PM EDFH-EVRA

Flight info

Callsign GTI7PM
Flight time 1h 29m
Altitude 37000
Route DCT FH076 DCT SOBRA DCT DIBDO DCT GORPI DCT DIPEB DCT ORVIX DCT TUK DCT GUDIN DCT
Aircraft B748/H-SDE2E3FGHIRWXY/S

Departure

Time 2026-04-28 16:03
Airport Frankfurt-Hahn Airport (EDFH)

Arrival

Time 2026-04-28 17:32
Airport Riga International Airport (EVRA)
Time Latitude Longitude Altitude Speed Heading
2026-04-28 15:27 49.95266 7.27452 1667 ft 0 kts 122°
2026-04-28 15:44 49.95276 7.27429 1671 ft 4 kts 122°
2026-04-28 15:44 49.95290 7.27394 1671 ft 4 kts 122°
2026-04-28 15:44 49.95304 7.27359 1671 ft 3 kts 122°
2026-04-28 15:44 49.95316 7.27330 1671 ft 4 kts 146°
2026-04-28 15:45 49.95326 7.27315 1671 ft 4 kts 192°
2026-04-28 15:45 49.95340 7.27324 1671 ft 4 kts 226°
2026-04-28 15:45 49.95358 7.27354 1671 ft 4 kts 218°
2026-04-28 15:45 49.95366 7.27364 1671 ft 0 kts 212°
2026-04-28 15:49 49.95361 7.27359 1671 ft 2 kts 212°
2026-04-28 15:50 49.95335 7.27334 1671 ft 6 kts 212°
2026-04-28 15:50 49.95295 7.27294 1671 ft 6 kts 212°
2026-04-28 15:50 49.95259 7.27259 1671 ft 7 kts 212°
2026-04-28 15:50 49.95212 7.27214 1662 ft 9 kts 212°
2026-04-28 15:51 49.95148 7.27152 1666 ft 12 kts 212°
2026-04-28 15:51 49.95065 7.27073 1667 ft 16 kts 212°
2026-04-28 15:51 49.94963 7.26973 1669 ft 18 kts 213°
2026-04-28 15:51 49.94911 7.26909 1671 ft 4 kts 241°
2026-04-28 15:52 49.94907 7.26881 1671 ft 2 kts 262°
2026-04-28 15:52 49.94907 7.26868 1665 ft 1 kts 271°
2026-04-28 15:52 49.94910 7.26855 1660 ft 1 kts 290°
2026-04-28 15:52 49.94914 7.26848 1665 ft 2 kts 300°
2026-04-28 15:53 49.94927 7.26813 1668 ft 5 kts 302°
2026-04-28 15:53 49.94937 7.26789 1672 ft 0 kts 303°
2026-04-28 15:54 49.94942 7.26778 1672 ft 3 kts 305°
2026-04-28 15:54 49.94966 7.26748 1669 ft 7 kts 331°
2026-04-28 15:55 49.95030 7.26732 1670 ft 12 kts 354°
2026-04-28 15:55 49.95099 7.26697 1672 ft 8 kts 315°
2026-04-28 15:55 49.95106 7.26643 1667 ft 4 kts 258°
2026-04-28 15:55 49.95082 7.26599 1664 ft 8 kts 222°
2026-04-28 15:56 49.95011 7.26530 1666 ft 16 kts 211°
2026-04-28 15:56 49.94891 7.26415 1668 ft 25 kts 213°
2026-04-28 15:56 49.94789 7.26312 1667 ft 26 kts 213°
2026-04-28 15:56 49.94598 7.26121 1664 ft 22 kts 213°
2026-04-28 15:57 49.94514 7.26037 1669 ft 21 kts 213°
2026-04-28 15:57 49.94400 7.25924 1669 ft 18 kts 213°
2026-04-28 15:57 49.94250 7.25777 1670 ft 20 kts 212°
2026-04-28 15:57 49.94124 7.25654 1667 ft 23 kts 212°
2026-04-28 15:58 49.93978 7.25511 1668 ft 26 kts 212°
2026-04-28 15:58 49.93817 7.25351 1668 ft 28 kts 212°
2026-04-28 15:58 49.93704 7.25239 1673 ft 29 kts 212°
2026-04-28 15:58 49.93543 7.25080 1666 ft 26 kts 212°
2026-04-28 15:59 49.93401 7.24939 1658 ft 23 kts 213°
2026-04-28 15:59 49.93291 7.24879 1654 ft 11 kts 154°
2026-04-28 15:59 49.93252 7.24963 1671 ft 9 kts 119°
2026-04-28 15:59 49.93218 7.25026 1663 ft 6 kts 148°
2026-04-28 16:00 49.93182 7.25030 1670 ft 5 kts 192°
2026-04-28 16:00 49.93150 7.25007 1662 ft 6 kts 211°
2026-04-28 16:00 49.93113 7.24972 1671 ft 7 kts 212°
2026-04-28 16:00 49.93078 7.24917 1667 ft 7 kts 240°
2026-04-28 16:01 49.93079 7.24850 1658 ft 6 kts 287°
2026-04-28 16:01 49.93104 7.24781 1653 ft 9 kts 301°
2026-04-28 16:01 49.93152 7.24722 1653 ft 9 kts 350°
2026-04-28 16:01 49.93206 7.24748 1671 ft 8 kts 32°
2026-04-28 16:02 49.93323 7.24864 1667 ft 44 kts 33°
2026-04-28 16:02 49.93772 7.25307 1666 ft 109 kts 32°
2026-04-28 16:02 49.94584 7.26110 1670 ft 166 kts 32°
2026-04-28 16:02 49.95684 7.27184 1861 ft 203 kts 32°
2026-04-28 16:03 49.96912 7.28393 2684 ft 209 kts 32°
2026-04-28 16:03 49.98131 7.29586 3562 ft 210 kts 32°
2026-04-28 16:03 49.99361 7.30802 4313 ft 211 kts 32°
2026-04-28 16:03 50.00610 7.32030 5012 ft 213 kts 32°
2026-04-28 16:04 50.01900 7.33297 5715 ft 224 kts 32°
2026-04-28 16:04 50.03171 7.34797 6412 ft 234 kts 45°
2026-04-28 16:04 50.04284 7.36706 7131 ft 243 kts 51°
2026-04-28 16:04 50.05319 7.38853 7860 ft 253 kts 55°
2026-04-28 16:05 50.06280 7.41045 8523 ft 262 kts 57°
2026-04-28 16:05 50.07310 7.43409 9219 ft 271 kts 56°
2026-04-28 16:05 50.08411 7.45844 9913 ft 279 kts 55°
2026-04-28 16:05 50.09550 7.48323 10601 ft 283 kts 54°
2026-04-28 16:06 50.10713 7.50834 11179 ft 293 kts 54°
2026-04-28 16:06 50.11956 7.53518 11483 ft 310 kts 54°
2026-04-28 16:06 50.13217 7.56239 12356 ft 312 kts 54°
2026-04-28 16:06 50.14496 7.59008 13147 ft 321 kts 54°
2026-04-28 16:07 50.15861 7.61971 13433 ft 343 kts 54°
2026-04-28 16:07 50.17265 7.65027 14111 ft 356 kts 54°
2026-04-28 16:07 50.20296 7.71639 14809 ft 395 kts 54°
2026-04-28 16:08 50.21932 7.75224 15227 ft 412 kts 54°
2026-04-28 16:08 50.23623 7.78937 15661 ft 427 kts 54°
2026-04-28 16:08 50.25368 7.82775 16263 ft 436 kts 54°
2026-04-28 16:09 50.28897 7.90556 17708 ft 446 kts 54°
2026-04-28 16:09 50.30700 7.94531 18409 ft 450 kts 54°
2026-04-28 16:09 50.32530 7.98568 19094 ft 455 kts 54°
2026-04-28 16:10 50.36221 8.06733 20379 ft 464 kts 55°
2026-04-28 16:10 50.38088 8.10881 21044 ft 467 kts 55°
2026-04-28 16:10 50.41845 8.19250 22232 ft 476 kts 55°
2026-04-28 16:11 50.45683 8.27828 23360 ft 484 kts 55°
2026-04-28 16:11 50.49582 8.36567 24413 ft 491 kts 55°
2026-04-28 16:12 50.53535 8.45458 25411 ft 499 kts 55°
2026-04-28 16:12 50.55526 8.49950 25883 ft 502 kts 55°
2026-04-28 16:13 50.59528 8.58998 26795 ft 510 kts 55°
2026-04-28 16:13 50.61557 8.63598 27248 ft 513 kts 55°
2026-04-28 16:13 50.65648 8.72895 28109 ft 519 kts 55°
2026-04-28 16:14 50.69755 8.82250 29274 ft 517 kts 55°
2026-04-28 16:14 50.73845 8.91579 30423 ft 515 kts 55°
2026-04-28 16:15 50.77897 9.00875 31518 ft 513 kts 56°
2026-04-28 16:15 50.79896 9.05476 32036 ft 512 kts 56°
2026-04-28 16:15 50.81908 9.10120 32548 ft 511 kts 56°
2026-04-28 16:16 50.85917 9.19403 33548 ft 509 kts 56°
2026-04-28 16:16 50.87914 9.24037 34010 ft 508 kts 56°
2026-04-28 16:17 50.91892 9.33293 34929 ft 507 kts 56°
2026-04-28 16:17 50.93872 9.37912 35375 ft 506 kts 56°
2026-04-28 16:17 50.95825 9.42476 35797 ft 505 kts 56°
2026-04-28 16:17 50.97793 9.47083 36205 ft 504 kts 56°
2026-04-28 16:18 50.99758 9.51693 36575 ft 504 kts 56°
2026-04-28 16:18 51.01723 9.56310 36885 ft 501 kts 56°
2026-04-28 16:18 51.05624 9.65499 36876 ft 500 kts 56°
2026-04-28 16:19 51.09507 9.74679 36882 ft 501 kts 56°
2026-04-28 16:19 51.13389 9.83889 36887 ft 501 kts 56°
2026-04-28 16:20 51.17242 9.93061 36890 ft 501 kts 56°
2026-04-28 16:20 51.21113 10.02312 36891 ft 501 kts 56°
2026-04-28 16:21 51.24973 10.11566 36888 ft 501 kts 56°
2026-04-28 16:21 51.28832 10.20856 36892 ft 501 kts 57°
2026-04-28 16:22 51.32656 10.30088 36890 ft 501 kts 57°
2026-04-28 16:22 51.36498 10.39401 36890 ft 501 kts 57°
2026-04-28 16:23 51.40323 10.48707 36890 ft 501 kts 57°
2026-04-28 16:23 51.44151 10.58051 36890 ft 501 kts 57°
2026-04-28 16:24 51.47949 10.67356 36886 ft 501 kts 57°
2026-04-28 16:24 51.51759 10.76726 36884 ft 501 kts 57°
2026-04-28 16:25 51.55560 10.86105 36883 ft 501 kts 57°
2026-04-28 16:25 51.59355 10.95505 36887 ft 501 kts 57°
2026-04-28 16:26 51.63140 11.04916 36888 ft 501 kts 57°
2026-04-28 16:26 51.66894 11.14282 36888 ft 501 kts 57°
2026-04-28 16:27 51.70665 11.23724 36883 ft 501 kts 57°
2026-04-28 16:28 51.76316 11.37942 36887 ft 501 kts 57°
2026-04-28 16:28 51.80073 11.47437 36890 ft 501 kts 57°
2026-04-28 16:29 51.86482 11.60580 36902 ft 501 kts 41°
2026-04-28 16:30 51.94897 11.70616 36887 ft 501 kts 35°
2026-04-28 16:30 52.00438 11.77366 36881 ft 500 kts 38°
2026-04-28 16:31 52.06006 11.84168 36878 ft 500 kts 36°
2026-04-28 16:31 52.11591 11.90943 36878 ft 500 kts 38°
2026-04-28 16:32 52.17120 11.97839 36873 ft 500 kts 37°
2026-04-28 16:33 52.28110 12.11351 36870 ft 500 kts 37°
2026-04-28 16:34 53.59199 13.79728 36898 ft 500 kts 38°
2026-04-28 16:35 53.64793 13.86706 36889 ft 501 kts 37°
2026-04-28 16:35 53.70184 13.94040 36882 ft 501 kts 40°
2026-04-28 16:36 53.75623 14.01426 36875 ft 500 kts 38°
2026-04-28 16:36 53.81051 14.08802 36873 ft 500 kts 40°
2026-04-28 16:37 53.86443 14.16277 36876 ft 500 kts 39°
2026-04-28 16:38 53.94574 14.27400 36878 ft 500 kts 39°
2026-04-28 16:38 53.99955 14.34804 36872 ft 500 kts 39°
2026-04-28 16:39 54.05353 14.42271 37024 ft 498 kts 39°
2026-04-28 16:39 54.10750 14.49773 37003 ft 501 kts 39°
2026-04-28 16:40 54.16151 14.57308 37002 ft 501 kts 39°
2026-04-28 16:40 54.21501 14.64798 37001 ft 500 kts 39°
2026-04-28 16:41 54.26881 14.72352 37001 ft 500 kts 39°
2026-04-28 16:41 54.32259 14.79932 37001 ft 500 kts 39°
2026-04-28 16:42 54.37635 14.87534 37001 ft 500 kts 39°
2026-04-28 16:42 54.43001 14.95151 37001 ft 500 kts 39°
2026-04-28 16:43 54.48339 15.02752 37000 ft 500 kts 39°
2026-04-28 16:43 54.53693 15.10405 37000 ft 500 kts 39°
2026-04-28 16:44 54.59047 15.18084 37000 ft 500 kts 40°
2026-04-28 16:44 54.64402 15.25793 37000 ft 500 kts 40°
2026-04-28 16:45 54.69712 15.33462 37000 ft 500 kts 40°
2026-04-28 16:45 54.75051 15.41203 37000 ft 500 kts 40°
2026-04-28 16:46 54.80385 15.48962 37000 ft 500 kts 40°
2026-04-28 16:46 54.85711 15.56739 37000 ft 500 kts 40°
2026-04-28 16:47 54.90998 15.64499 37000 ft 500 kts 40°
2026-04-28 16:47 54.96020 15.72884 37004 ft 500 kts 47°
2026-04-28 16:48 55.00819 15.81671 37004 ft 500 kts 44°
2026-04-28 16:48 55.05791 15.90168 37004 ft 500 kts 46°
2026-04-28 16:49 55.10631 15.98922 37004 ft 500 kts 45°
2026-04-28 16:49 55.15522 16.07565 37002 ft 500 kts 45°
2026-04-28 16:50 55.20383 16.16158 37001 ft 500 kts 45°
2026-04-28 16:50 55.25264 16.24852 37001 ft 500 kts 45°
2026-04-28 16:51 55.30143 16.33604 37001 ft 500 kts 46°
2026-04-28 16:51 55.34965 16.42296 37001 ft 500 kts 46°
2026-04-28 16:52 55.39819 16.51071 37001 ft 500 kts 46°
2026-04-28 16:52 55.44665 16.59862 37001 ft 500 kts 46°
2026-04-28 16:53 55.49509 16.68683 37001 ft 500 kts 46°
2026-04-28 16:53 55.54344 16.77520 37001 ft 500 kts 46°
2026-04-28 16:54 55.59170 16.86377 37001 ft 500 kts 46°
2026-04-28 16:54 55.63967 16.95211 37001 ft 500 kts 46°
2026-04-28 16:55 55.68777 17.04106 37001 ft 500 kts 46°
2026-04-28 16:55 55.72774 17.11519 37001 ft 500 kts 46°
2026-04-28 16:56 55.77584 17.20476 37001 ft 500 kts 46°
2026-04-28 16:56 55.82382 17.29442 37001 ft 500 kts 46°
2026-04-28 16:57 55.87149 17.38387 37001 ft 500 kts 46°
2026-04-28 16:57 55.91931 17.47392 37001 ft 500 kts 46°
2026-04-28 16:58 55.96714 17.56433 37001 ft 500 kts 46°
2026-04-28 16:58 56.01478 17.65474 37001 ft 500 kts 47°
2026-04-28 16:59 56.06221 17.74511 37001 ft 500 kts 47°
2026-04-28 16:59 56.10975 17.83602 37001 ft 500 kts 47°
2026-04-28 17:00 56.15721 17.92716 37001 ft 500 kts 47°
2026-04-28 17:00 56.17815 17.97684 37011 ft 499 kts 62°
2026-04-28 17:00 56.19350 18.03264 37004 ft 500 kts 67°
2026-04-28 17:01 56.21592 18.14985 37007 ft 500 kts 74°
2026-04-28 17:01 56.23525 18.26819 37001 ft 500 kts 72°
2026-04-28 17:02 56.25793 18.38639 36997 ft 499 kts 72°
2026-04-28 17:02 56.27853 18.50575 36995 ft 499 kts 72°
2026-04-28 17:03 56.31069 18.68426 36991 ft 499 kts 72°
2026-04-28 17:03 56.33206 18.80348 36990 ft 499 kts 72°
2026-04-28 17:04 56.35529 18.93558 37130 ft 495 kts 72°
2026-04-28 17:04 56.36572 18.99520 37000 ft 498 kts 72°
2026-04-28 17:05 56.39692 19.17447 37002 ft 499 kts 73°
2026-04-28 17:06 56.42560 19.35522 37004 ft 499 kts 80°
2026-04-28 17:06 56.43949 19.54187 37004 ft 499 kts 82°
2026-04-28 17:07 56.45106 19.66484 37003 ft 499 kts 81°
2026-04-28 17:07 56.46084 19.78921 37001 ft 499 kts 82°
2026-04-28 17:08 56.47121 19.91342 37000 ft 499 kts 81°
2026-04-28 17:08 56.48176 20.03753 36998 ft 499 kts 82°
2026-04-28 17:09 56.49204 20.16183 36997 ft 499 kts 82°
2026-04-28 17:09 56.50197 20.28538 36997 ft 499 kts 82°
2026-04-28 17:10 56.51179 20.40976 36997 ft 499 kts 82°
2026-04-28 17:10 56.52152 20.53431 36997 ft 499 kts 82°
2026-04-28 17:11 56.53113 20.65869 36855 ft 501 kts 82°
2026-04-28 17:11 56.53594 20.72171 36157 ft 505 kts 82°
2026-04-28 17:11 56.54073 20.78476 35467 ft 504 kts 82°
2026-04-28 17:12 56.54546 20.84756 34794 ft 502 kts 82°
2026-04-28 17:12 56.55015 20.91019 34136 ft 500 kts 82°
2026-04-28 17:12 56.55478 20.97246 33467 ft 497 kts 82°
2026-04-28 17:12 56.55935 21.03448 32795 ft 495 kts 83°
2026-04-28 17:13 56.56381 21.09543 32132 ft 492 kts 83°
2026-04-28 17:13 56.56828 21.15674 31464 ft 489 kts 83°
2026-04-28 17:13 56.57268 21.21773 30826 ft 486 kts 83°
2026-04-28 17:13 56.57703 21.27827 30177 ft 482 kts 83°
2026-04-28 17:14 56.58133 21.33866 29533 ft 479 kts 83°
2026-04-28 17:14 56.58555 21.39835 28903 ft 475 kts 83°
2026-04-28 17:14 56.58972 21.45766 28277 ft 472 kts 83°
2026-04-28 17:14 56.59377 21.51576 27667 ft 468 kts 83°
2026-04-28 17:15 56.59787 21.57486 27033 ft 464 kts 83°
2026-04-28 17:15 56.60180 21.63195 26421 ft 460 kts 83°
2026-04-28 17:15 56.60573 21.68946 25823 ft 457 kts 83°
2026-04-28 17:15 56.60960 21.74651 25213 ft 453 kts 83°
2026-04-28 17:16 56.61340 21.80297 24618 ft 449 kts 83°
2026-04-28 17:16 56.61717 21.85919 24021 ft 445 kts 83°
2026-04-28 17:16 56.62087 21.91492 23426 ft 442 kts 83°
2026-04-28 17:16 56.62452 21.97016 22841 ft 438 kts 83°
2026-04-28 17:17 56.62806 22.02423 22271 ft 434 kts 83°
2026-04-28 17:17 56.63161 22.07861 21698 ft 431 kts 83°
2026-04-28 17:17 56.63508 22.13249 21124 ft 427 kts 83°
2026-04-28 17:17 56.63853 22.18599 20571 ft 423 kts 83°
2026-04-28 17:18 56.64189 22.23885 19999 ft 420 kts 84°
2026-04-28 17:18 56.64522 22.29137 19443 ft 417 kts 84°
2026-04-28 17:18 56.64850 22.34347 18897 ft 413 kts 84°
2026-04-28 17:18 56.65172 22.39510 18350 ft 410 kts 84°
2026-04-28 17:19 56.65491 22.44641 17810 ft 406 kts 84°
2026-04-28 17:19 56.65805 22.49726 17265 ft 403 kts 84°
2026-04-28 17:19 56.66114 22.54783 16738 ft 400 kts 84°
2026-04-28 17:19 56.66414 22.59726 16208 ft 397 kts 84°
2026-04-28 17:20 56.66712 22.64640 15661 ft 379 kts 84°
2026-04-28 17:20 56.66902 22.67797 15343 ft 368 kts 84°
2026-04-28 17:20 56.67269 22.73922 14716 ft 366 kts 84°
2026-04-28 17:20 56.67541 22.78521 14233 ft 366 kts 84°
2026-04-28 17:21 56.67813 22.83125 13743 ft 365 kts 84°
2026-04-28 17:21 56.68081 22.87719 13258 ft 364 kts 84°
2026-04-28 17:21 56.68346 22.92288 12772 ft 363 kts 84°
2026-04-28 17:22 56.68871 23.01400 11810 ft 361 kts 84°
2026-04-28 17:22 56.69125 23.05874 11340 ft 359 kts 84°
2026-04-28 17:22 56.69373 23.10239 10825 ft 338 kts 84°
2026-04-28 17:23 56.69837 23.18498 9844 ft 319 kts 84°
2026-04-28 17:23 56.70058 23.22474 9359 ft 311 kts 84°
2026-04-28 17:23 56.70273 23.26337 8882 ft 300 kts 84°
2026-04-28 17:23 56.70476 23.30041 8442 ft 290 kts 84°
2026-04-28 17:24 56.70675 23.33673 8016 ft 286 kts 84°
2026-04-28 17:24 56.70871 23.37271 7604 ft 284 kts 85°
2026-04-28 17:24 56.71063 23.40841 7339 ft 284 kts 85°
2026-04-28 17:24 56.71249 23.44283 7107 ft 284 kts 85°
2026-04-28 17:25 56.71440 23.47854 6826 ft 283 kts 85°
2026-04-28 17:25 56.71817 23.54965 6222 ft 281 kts 85°
2026-04-28 17:25 56.72005 23.58521 5892 ft 282 kts 85°
2026-04-28 17:26 56.72191 23.62064 5569 ft 282 kts 85°
2026-04-28 17:26 56.72376 23.65619 5248 ft 282 kts 85°
2026-04-28 17:26 56.72558 23.69162 4892 ft 278 kts 85°
2026-04-28 17:26 56.72732 23.72628 4529 ft 272 kts 85°
2026-04-28 17:27 56.72862 23.75973 4166 ft 265 kts 89°
2026-04-28 17:27 56.72807 23.79292 3830 ft 257 kts 95°
2026-04-28 17:27 56.72632 23.82417 3691 ft 243 kts 97°
2026-04-28 17:27 56.72426 23.85437 3400 ft 235 kts 98°
2026-04-28 17:28 56.72241 23.88324 3165 ft 226 kts 96°
2026-04-28 17:28 56.73396 23.93274 2396 ft 222 kts 31°
2026-04-28 17:28 56.74848 23.94047 2048 ft 217 kts
2026-04-28 17:29 56.76334 23.94379 1788 ft 212 kts
2026-04-28 17:29 56.77773 23.94790 1685 ft 201 kts
2026-04-28 17:29 56.79062 23.94989 1663 ft 176 kts
2026-04-28 17:30 56.81454 23.95301 1691 ft 172 kts
2026-04-28 17:30 56.83844 23.95700 1364 ft 173 kts
2026-04-28 17:30 56.85041 23.95870 1034 ft 172 kts
2026-04-28 17:31 56.86222 23.96111 771 ft 170 kts
2026-04-28 17:31 56.88564 23.96490 385 ft 169 kts
2026-04-28 17:32 56.90883 23.96856 51 ft 160 kts
2026-04-28 17:32 56.91832 23.97018 49 ft 107 kts
2026-04-28 17:32 56.92423 23.97114 48 ft 68 kts
2026-04-28 17:32 56.92776 23.97172 49 ft 43 kts
2026-04-28 17:33 56.92942 23.97202 50 ft 5 kts 13°
2026-04-28 17:33 56.92954 23.97220 50 ft 0 kts 47°
2026-04-28 17:33 56.92959 23.97241 45 ft 5 kts 65°
2026-04-28 17:33 56.92962 23.97269 49 ft 8 kts 84°
2026-04-28 17:34 56.92956 23.97454 46 ft 7 kts 95°
2026-04-28 17:34 56.92953 23.97525 51 ft 5 kts 95°
2026-04-28 17:34 56.92950 23.97587 51 ft 6 kts 95°
2026-04-28 17:34 56.92947 23.97659 51 ft 5 kts 95°
2026-04-28 17:35 56.92943 23.97724 45 ft 6 kts 96°
2026-04-28 17:35 56.92939 23.97794 46 ft 1 kts 96°
2026-04-28 17:35 56.92936 23.97843 49 ft 6 kts 96°
2026-04-28 17:35 56.92951 23.97900 45 ft 4 kts 35°
2026-04-28 17:36 56.92973 23.97902 44 ft 5 kts
2026-04-28 17:36 56.93007 23.97907 49 ft 2 kts
2026-04-28 17:36 56.93016 23.97909 49 ft 0 kts